CW1663 Weather Reports


Display with metric or nautical units.
time (UTC)temp
F
wind
direction
speed
MPH
gust
MPH
rain 1hr
in
rain 24hr
in
rain mn
in
humidity
%
barometer
mb
20260510040804 48 30 7.0 16.0 0.00 0.00 0.00 90 1015.6
20260510035306 48 21 7.0 13.0 0.00 0.00 0.00 90 1015.8
20260510034304 48 40 7.0 13.0 0.00 0.00 0.00 90 1015.8
20260510033804 48 8 5.0 14.0 0.00 0.00 0.00 90 1015.8
20260510033305 48 16 5.0 13.0 0.00 0.00 0.00 90 1015.8
20260510032306 48 33 6.0 12.0 0.00 0.00 0.00 90 1015.9
20260510031304 49 38 4.0 10.0 0.00 0.00 0.00 90 1015.9
20260510030804 49 24 5.0 12.0 0.00 0.00 0.00 90 1015.9
20260510030304 49 32 5.0 10.0 0.00 0.00 0.00 90 1015.9
20260510025804 49 32 5.0 12.0 0.00 0.00 0.00 90 1015.9
20260510023805 49 48 5.0 12.0 0.00 0.00 0.00 89 1016.0
20260510022804 49 35 5.0 12.0 0.00 0.00 0.00 89 1016.0
20260510021304 50 23 5.0 10.0 0.00 0.00 0.00 88 1015.9
20260510020804 50 39 5.0 10.0 0.00 0.00 0.00 87 1015.9
20260510012804 51 53 4.0 9.0 0.00 0.00 0.00 82 1016.0
20260510011804 51 27 5.0 10.0 0.00 0.00 0.00 82 1016.0
20260510011304 51 58 5.0 12.0 0.00 0.00 0.00 82 1015.9
20260510010304 51 34 3.0 10.0 0.00 0.00 0.00 82 1016.0
20260510005306 51 43 5.0 12.0 0.00 0.00 0.00 81 1016.0
20260510004804 51 51 4.0 10.0 0.00 0.00 0.00 81 1016.0
20260510003304 51 45 5.0 10.0 0.00 0.00 0.00 79 1016.1
20260510002805 51 38 5.0 12.0 0.00 0.00 0.00 79 1016.1
20260510002306 51 41 5.0 12.0 0.00 0.00 0.00 78 1016.0
20260510001805 51 25 5.0 12.0 0.00 0.00 0.00 77 1016.0
20260510001304 51 46 5.0 10.0 0.00 0.00 0.00 76 1016.2
20260510000804 51 51 4.0 10.0 0.00 0.00 0.00 76 1016.2
20260510000304 51 46 5.0 10.0 0.00 0.00 0.00 75 1016.1
20260509234304 51 45 3.0 7.0 0.00 0.00 0.00 74 1016.1
20260509232804 52 41 2.0 10.0 0.00 0.00 0.00 73 1016.1
20260509232306 52 29 5.0 10.0 0.00 0.00 0.00 73 1016.3
20260509231805 52 12 3.0 8.0 0.00 0.00 0.00 73 1016.3
20260509230814 52 50 5.0 9.0 0.00 0.00 0.00 73 1016.3
20260509230305 52 357 4.0 9.0 0.00 0.00 0.00 73 1016.3
20260509225804 52 47 4.0 10.0 0.00 0.00 0.00 73 1016.3
20260509224804 52 42 4.0 10.0 0.00 0.00 0.00 71 1016.4
20260509223804 52 46 3.0 8.0 0.00 0.00 0.00 70 1016.4
20260509221804 52 47 4.0 9.0 0.00 0.00 0.00 68 1016.5
20260509221304 52 46 3.0 9.0 0.00 0.00 0.00 67 1016.4
20260509220804 52 43 3.0 9.0 0.00 0.00 0.00 67 1016.4
20260509220304 52 53 3.0 7.0 0.00 0.00 0.00 66 1016.4
20260509215306 52 13 4.0 9.0 0.00 0.00 0.00 65 1016.3
20260509214804 52 42 3.0 9.0 0.00 0.00 0.00 65 1016.3
20260509213804 52 35 3.0 8.0 0.00 0.00 0.00 64 1016.4
20260509212306 53 15 5.0 12.0 0.00 0.00 0.00 63 1016.2
20260509211304 53 32 5.0 10.0 0.00 0.00 0.00 63 1016.2
20260509210304 53 53 3.0 8.0 0.00 0.00 0.00 62 1016.2
20260509204304 53 36 4.0 9.0 0.00 0.00 0.00 61 1016.0
20260509202804 54 25 5.0 13.0 0.00 0.00 0.00 60 1015.9
20260509202306 54 45 4.0 10.0 0.00 0.00 0.00 60 1015.9
20260509201804 54 43 5.0 12.0 0.00 0.00 0.00 60 1015.9
20260509200804 54 37 5.0 10.0 0.00 0.01 0.00 62 1016.0
20260509200304 55 36 5.0 9.0 0.00 0.01 0.00 63 1015.9
20260509195804 55 14 4.0 9.0 0.00 0.01 0.00 62 1015.9
20260509194805 55 43 6.0 12.0 0.00 0.01 0.00 63 1015.9
20260509193305 56 36 4.0 12.0 0.00 0.01 0.00 63 1015.9
20260509192306 56 41 5.0 12.0 0.00 0.01 0.00 61 1015.7
20260509191304 56 50 6.0 14.0 0.00 0.01 0.00 61 1015.6
20260509190306 57 47 5.0 12.0 0.00 0.01 0.00 60 1015.5
20260509185804 57 42 4.0 12.0 0.00 0.01 0.00 59 1015.5
20260509183804 58 30 5.0 10.0 0.00 0.01 0.00 58 1015.4
20260509182804 59 36 4.0 12.0 0.00 0.01 0.00 58 1015.5
20260509182306 59 66 5.0 12.0 0.00 0.01 0.00 58 1015.5
20260509181304 60 42 4.0 9.0 0.00 0.01 0.00 59 1015.4
20260509180804 60 36 4.0 8.0 0.00 0.01 0.00 58 1015.4
20260509180304 60 58 5.0 10.0 0.00 0.01 0.00 58 1015.6
20260509175306 60 42 4.0 8.0 0.00 0.01 0.00 57 1015.7
20260509174805 60 53 5.0 12.0 0.00 0.01 0.00 56 1015.7
20260509174304 61 39 7.0 13.0 0.00 0.01 0.00 56 1015.4
20260509173804 61 47 4.0 12.0 0.00 0.01 0.00 57 1015.4
20260509173305 61 44 6.0 12.0 0.00 0.01 0.00 57 1015.2
20260509172804 61 48 5.0 9.0 0.00 0.01 0.00 56 1015.2
20260509172306 61 58 7.0 12.0 0.00 0.01 0.00 56 1015.2
20260509171304 63 50 5.0 16.0 0.00 0.01 0.00 57 1015.2
20260509170804 63 63 5.0 12.0 0.00 0.01 0.00 57 1015.2
20260509170304 63 62 3.0 9.0 0.00 0.01 0.00 57 1015.2
20260509164304 64 36 3.0 12.0 0.00 0.01 0.00 58 1015.3
20260509163804 64 39 5.0 12.0 0.00 0.01 0.00 58 1015.3
20260509163304 64 63 6.0 14.0 0.00 0.01 0.00 57 1015.3
20260509162804 64 39 6.0 15.0 0.00 0.01 0.00 57 1015.3
20260509161304 65 80 7.0 12.0 0.00 0.01 0.00 56 1015.3
20260509160304 65 16 5.0 10.0 0.00 0.01 0.00 56 1015.4
20260509155804 65 71 6.0 10.0 0.00 0.01 0.00 56 1015.4
20260509154804 66 45 6.0 13.0 0.00 0.01 0.00 56 1015.4
20260509153804 65 56 6.0 12.0 0.00 0.01 0.00 56 1015.5
20260509153304 65 51 7.0 12.0 0.00 0.01 0.00 56 1015.5
20260509152804 65 64 6.0 14.0 0.00 0.01 0.00 56 1015.5
20260509151804 66 36 6.0 12.0 0.00 0.01 0.00 55 1015.7
20260509151304 66 60 3.0 10.0 0.00 0.01 0.00 57 1015.7
20260509150304 66 57 6.0 14.0 0.00 0.01 0.00 56 1015.7
20260509144305 66 75 3.0 10.0 0.00 0.01 0.00 56 1015.5
20260509141804 66 87 6.0 13.0 0.00 0.01 0.00 56 1015.5
20260509141304 66 52 6.0 12.0 0.00 0.01 0.00 57 1015.3
20260509140804 66 35 4.0 14.0 0.00 0.01 0.00 57 1015.3
20260509134804 66 60 5.0 12.0 0.00 0.01 0.00 56 1015.4
20260509131804 66 27 5.0 13.0 0.00 0.01 0.00 57 1015.6
20260509131304 66 85 5.0 10.0 0.00 0.01 0.00 57 1015.6
20260509125307 66 58 6.0 13.0 0.00 0.01 0.00 58 1015.7
20260509124804 66 65 7.0 14.0 0.00 0.01 0.00 57 1015.7
20260509124304 66 49 6.0 12.0 0.00 0.01 0.00 57 1015.7
20260509123304 66 82 6.0 13.0 0.00 0.01 0.00 57 1015.9
20260509121304 65 101 5.0 12.0 0.00 0.01 0.00 54 1016.2
20260509115306 65 60 6.0 13.0 0.00 0.01 0.00 56 1016.3
20260509114804 65 78 5.0 10.0 0.00 0.01 0.00 57 1016.3
20260509113805 65 46 5.0 12.0 0.00 0.01 0.00 58 1016.3
20260509112306 65 93 3.0 10.0 0.00 0.01 0.00 59 1016.5
20260509110804 65 82 6.0 13.0 0.00 0.01 0.00 60 1016.6
20260509110305 65 126 4.0 10.0 0.00 0.01 0.00 61 1016.7
20260509105306 65 80 5.0 10.0 0.00 0.01 0.00 61 1016.8
20260509104304 64 88 4.0 14.0 0.00 0.01 0.00 61 1017.1
20260509102804 64 87 5.0 10.0 0.00 0.01 0.00 61 1017.1
20260509102306 64 99 2.0 7.0 0.00 0.01 0.00 63 1017.1
20260509101804 64 71 6.0 13.0 0.00 0.01 0.00 62 1017.1
20260509100804 63 114 3.0 13.0 0.00 0.01 0.00 63 1017.2
20260509095804 63 46 4.0 12.0 0.00 0.01 0.00 65 1017.0
20260509095306 63 63 6.0 10.0 0.00 0.01 0.00 64 1017.2
20260509094804 63 115 6.0 12.0 0.00 0.01 0.00 65 1017.2
20260509094305 63 65 5.0 9.0 0.00 0.01 0.00 66 1017.2
20260509093804 63 85 2.0 9.0 0.00 0.01 0.00 67 1017.2
20260509093304 63 60 4.0 9.0 0.00 0.01 0.00 67 1017.3
20260509092804 63 72 4.0 9.0 0.00 0.01 0.00 67 1017.3
20260509092305 62 126 4.0 7.0 0.00 0.01 0.00 68 1017.3
20260509091303 62 349 3.0 8.0 0.00 0.01 0.00 69 1017.5
20260509090304 62 48 6.0 10.0 0.00 0.01 0.00 69 1017.5
20260509085804 61 47 2.0 7.0 0.00 0.01 0.00 70 1017.5
20260509085306 61 55 2.0 6.0 0.00 0.01 0.00 70 1017.3
20260509083804 61 56 3.0 7.0 0.00 0.01 0.00 71 1017.2
20260509082307 60 81 2.0 5.0 0.00 0.01 0.00 74 1017.2
20260509081804 59 16 2.0 7.0 0.00 0.01 0.00 74 1017.2
20260509081304 59 75 3.0 9.0 0.00 0.01 0.00 75 1017.2
20260509080804 59 50 3.0 6.0 0.00 0.01 0.00 75 1017.2
20260509075804 58 36 2.0 7.0 0.00 0.01 0.00 77 1017.4
20260509074304 57 75 3.0 7.0 0.00 0.01 0.00 79 1017.3
20260509073804 56 40 3.0 6.0 0.00 0.01 0.00 79 1017.3
20260509073304 56 72 4.0 8.0 0.00 0.01 0.00 79 1017.2
20260509072804 56 60 2.0 7.0 0.00 0.01 0.00 80 1017.2
20260509070304 55 61 3.0 9.0 0.00 0.01 0.00 81 1017.1
20260509065804 54 72 3.0 7.0 0.00 0.01 0.00 82 1017.1
20260509064804 54 60 4.0 8.0 0.00 0.01 0.00 82 1017.0
20260509064304 53 79 3.0 7.0 0.00 0.01 0.00 82 1017.2
20260509063804 53 55 3.0 6.0 0.00 0.01 0.00 82 1017.2
20260509061305 52 37 2.0 5.0 0.00 0.01 0.00 83 1017.2
20260509060304 52 42 2.0 3.0 0.00 0.01 0.00 84 1017.2
20260509055804 52 47 1.0 3.0 0.00 0.01 0.00 84 1017.2
20260509054804 51 44 1.0 3.0 0.00 0.01 0.00 85 1017.1
20260509053804 51 40 3.0 5.0 0.00 0.01 0.00 85 1017.0
20260509052307 50 30 1.0 3.0 0.00 0.01 0.00 86 1017.0
20260509051304 50 39 1.0 3.0 0.00 0.01 0.00 86 1017.0
20260509045306 49 50 1.0 3.0 0.00 0.01 0.00 87 1017.0
20260509044804 49 41 2.0 5.0 0.00 0.01 0.00 87 1017.0
20260509043804 48 38 1.0 3.0 0.00 0.01 0.00 86 1017.1
20260509042306 49 42 0.0 2.0 0.00 0.01 0.00 86 1017.0
20260509041804 49 42 1.0 2.0 0.00 0.01 0.00 86 1017.0
20260509041304 49 42 1.0 2.0 0.00 0.01 0.00 86 1017.1